FW7040 Weather Reports


time (UTC)temp
C
wind
direction
speed
KPH
gust
KPH
rain 1hr
cm
rain 24hr
cm
rain mn
cm
humidity
%
barometer
mb
20260506134608 24 95 0.0 11.3 0.00 0.00 0.00 90 1012.7
20260506134104 24 121 0.0 12.9 0.00 0.00 0.00 90 1012.4
20260506133602 24 105 0.0 8.0 0.00 0.00 0.00 90 1012.5
20260506133059 24 124 4.8 8.0 0.00 0.00 0.00 90 1012.5
20260506132556 24 87 4.8 6.4 0.00 0.00 0.00 90 1012.5
20260506132053 24 120 0.0 8.0 0.00 0.00 0.00 91 1012.4
20260506131550 24 112 4.8 8.0 0.00 0.00 0.00 91 1012.6
20260506131046 24 113 3.2 12.9 0.00 0.00 0.00 91 1012.4
20260506130543 24 15 0.0 8.0 0.00 0.00 0.00 91 1012.0
20260506130041 24 98 1.6 8.0 0.00 0.00 0.00 91 1011.9
20260506125539 24 85 6.4 9.7 0.00 0.00 0.00 91 1011.8
20260506125036 24 115 3.2 11.3 0.00 0.00 0.00 91 1011.7
20260506124534 23 121 3.2 8.0 0.00 0.00 0.00 91 1011.9
20260506124032 23 83 4.8 12.9 0.00 0.00 0.00 91 1011.7
20260506123529 24 106 3.2 9.7 0.00 0.00 0.00 91 1011.6
20260506123027 23 102 3.2 8.0 0.00 0.00 0.00 92 1011.6
20260506122524 23 118 0.0 8.0 0.00 0.00 0.00 91 1011.6
20260506122022 23 103 1.6 6.4 0.00 0.00 0.00 91 1011.7
20260506121519 23 98 0.0 3.2 0.00 0.00 0.00 91 1011.6
20260506121015 23 90 0.0 3.2 0.00 0.00 0.00 91 1011.7
20260506120514 23 106 0.0 4.8 0.00 0.00 0.00 91 1011.8
20260506120010 23 114 4.8 4.8 0.00 0.00 0.00 91 1011.7
20260506115508 23 81 0.0 4.8 0.00 0.00 0.00 91 1011.4
20260506115007 23 94 4.8 4.8 0.00 0.00 0.00 91 1011.6
20260506114503 23 83 0.0 4.8 0.00 0.00 0.00 91 1011.3
20260506114002 23 79 4.8 4.8 0.00 0.00 0.00 91 1011.4
20260506113459 23 90 0.0 4.8 0.00 0.00 0.00 90 1011.5
20260506112956 23 105 0.0 4.8 0.00 0.00 0.00 90 1011.5
20260506112453 23 82 1.6 4.8 0.00 0.00 0.00 90 1011.8
20260506111950 23 68 0.0 4.8 0.00 0.00 0.00 90 1011.8
20260506111449 23 342 0.0 1.6 0.00 0.00 0.00 90 1011.6
20260506110945 23 99 0.0 0.0 0.00 0.00 0.00 90 1011.7
20260506110443 23 83 0.0 3.2 0.00 0.00 0.00 90 1011.7
20260506105939 23 294 0.0 3.2 0.00 0.00 0.00 90 1011.7
20260506105436 23 83 0.0 0.0 0.00 0.00 0.00 90 1011.7
20260506104933 24 99 0.0 1.6 0.00 0.00 0.00 90 1011.8
20260506104431 24 77 1.6 1.6 0.00 0.00 0.00 90 1011.7
20260506103929 24 200 0.0 1.6 0.00 0.00 0.00 90 1011.5
20260506103427 23 188 0.0 0.0 0.00 0.00 0.00 90 1011.5
20260506102923 24 188 0.0 0.0 0.00 0.00 0.00 89 1011.4
20260506102421 24 126 0.0 1.6 0.00 0.00 0.00 90 1011.3
20260506101918 24 209 0.0 0.0 0.00 0.00 0.00 89 1011.4
20260506101414 24 203 0.0 1.6 0.00 0.00 0.00 89 1011.2
20260506100912 24 154 0.0 4.8 0.00 0.00 0.00 89 1011.1
20260506100410 24 203 0.0 3.2 0.00 0.00 0.00 89 1011.2
20260506095908 24 233 4.8 4.8 0.00 0.00 0.00 89 1011.1
20260506095406 24 183 4.8 4.8 0.00 0.00 0.00 89 1011.0
20260506094902 24 206 0.0 8.0 0.00 0.00 0.00 89 1010.8
20260506094401 24 194 0.0 8.0 0.00 0.00 0.00 89 1010.8
20260506093858 24 195 3.2 11.3 0.00 0.00 0.00 88 1010.9
20260506093355 24 172 0.0 9.7 0.00 0.00 0.00 88 1010.9
20260506092853 24 194 6.4 9.7 0.00 0.00 0.00 88 1010.8
20260506092351 24 201 4.8 6.4 0.00 0.00 0.00 88 1010.6
20260506091847 24 151 8.0 12.9 0.00 0.00 0.00 88 1010.8
20260506091345 24 148 4.8 8.0 0.00 0.00 0.00 88 1010.9
20260506090842 25 173 1.6 8.0 0.00 0.00 0.00 88 1010.6
20260506090340 25 153 6.4 9.7 0.00 0.00 0.00 88 1010.5
20260506085836 24 205 9.7 11.3 0.00 0.00 0.00 88 1010.5
20260506085332 24 143 8.0 11.3 0.00 0.00 0.00 88 1010.2
20260506084829 25 149 9.7 12.9 0.00 0.00 0.00 87 1010.4
20260506084326 25 153 8.0 11.3 0.00 0.00 0.00 87 1010.4
20260506083823 25 127 3.2 9.7 0.00 0.00 0.00 87 1010.4
20260506083320 25 133 4.8 8.0 0.00 0.00 0.00 87 1010.4
20260506082818 25 144 0.0 8.0 0.00 0.00 0.00 87 1010.7
20260506082314 25 160 4.8 8.0 0.00 0.00 0.00 86 1010.7
20260506081810 25 140 4.8 9.7 0.00 0.00 0.00 87 1010.4
20260506081308 25 164 4.8 6.4 0.00 0.00 0.00 87 1010.5
20260506080806 25 139 8.0 11.3 0.00 0.00 0.00 86 1010.8
20260506080302 25 131 3.2 9.7 0.00 0.00 0.00 86 1010.5
20260506073246 25 154 4.8 17.7 0.00 0.00 0.00 87 1010.7
20260506072743 25 148 12.9 19.3 0.00 0.00 0.00 87 1011.1
20260506072240 25 153 14.5 22.5 0.00 0.00 0.00 87 1010.9
20260506071738 25 100 4.8 24.1 0.00 0.00 0.00 87 1011.0
20260506071236 25 150 11.3 17.7 0.00 0.00 0.00 87 1011.1
20260506070732 25 152 12.9 29.0 0.00 0.00 0.00 87 1010.9
20260506070229 25 171 3.2 16.1 0.00 0.00 0.00 87 1010.9
20260506062206 25 148 14.5 20.9 0.00 0.00 0.00 87 1010.9
20260506061702 25 145 12.9 16.1 0.00 0.00 0.00 87 1010.8
20260506061200 25 140 17.7 17.7 0.00 0.00 0.00 87 1010.9
20260506060659 25 137 8.0 17.7 0.00 0.00 0.00 87 1010.9
20260506060155 24 153 19.3 24.1 0.00 0.00 0.00 87 1010.6
20260506051127 25 154 9.7 20.9 0.00 0.00 0.00 87 1010.8
20260506050625 25 151 11.3 24.1 0.00 0.00 0.00 87 1010.8
20260506050122 25 148 3.2 19.3 0.00 0.00 0.00 87 1011.0
20260506045115 25 110 3.2 16.1 0.00 0.00 0.00 87 1011.0
20260506044613 25 139 11.3 16.1 0.00 0.00 0.00 87 1010.8
20260506044110 25 124 9.7 14.5 0.00 0.00 0.00 87 1010.7
20260506043607 25 145 11.3 17.7 0.00 0.00 0.00 87 1010.7
20260506043105 25 124 9.7 16.1 0.00 0.00 0.00 87 1010.9
20260506042604 25 157 11.3 12.9 0.00 0.00 0.00 86 1010.6
20260506042102 25 149 4.8 9.7 0.00 0.00 0.00 86 1011.0
20260506041600 25 145 6.4 11.3 0.00 0.00 0.00 86 1010.9
20260506041056 25 90 4.8 11.3 0.00 0.00 0.00 86 1010.7
20260506040554 25 139 6.4 14.5 0.00 0.00 0.00 86 1010.8
20260506040050 25 128 9.7 14.5 0.00 0.00 0.00 85 1010.6
20260506035547 25 142 11.3 14.5 0.00 0.00 0.00 85 1010.6
20260506035044 25 117 8.0 16.1 0.00 0.00 0.00 85 1010.4
20260506034542 25 116 6.4 14.5 0.00 0.00 0.00 85 1010.2
20260506034038 25 113 9.7 11.3 0.00 0.00 0.00 84 1010.3
20260506033536 25 108 4.8 14.5 0.00 0.00 0.00 84 1010.2
20260506033032 26 130 8.0 16.1 0.00 0.00 0.00 83 1010.2
20260506032530 25 93 4.8 12.9 0.00 0.00 0.00 83 1010.4
20260506032026 26 121 8.0 12.9 0.00 0.00 0.00 82 1010.2
20260506031524 26 99 3.2 9.7 0.00 0.00 0.00 82 1010.2
20260506031021 26 139 8.0 12.9 0.00 0.00 0.00 82 1010.1
20260506030519 26 141 8.0 11.3 0.00 0.00 0.00 82 1010.2
20260506030016 26 106 6.4 8.0 0.00 0.00 0.00 82 1009.8
20260506025513 26 129 11.3 12.9 0.00 0.00 0.00 81 1009.9
20260506025009 26 163 3.2 8.0 0.00 0.00 0.00 80 1009.8
20260506024506 26 160 4.8 11.3 0.00 0.00 0.00 81 1009.9
20260506024002 26 125 8.0 9.7 0.00 0.00 0.00 81 1009.6
20260506023458 26 153 6.4 11.3 0.00 0.00 0.00 80 1009.5
20260506022955 26 138 4.8 9.7 0.00 0.00 0.00 80 1009.6
20260506022453 26 135 6.4 11.3 0.00 0.00 0.00 80 1009.4
20260506021951 26 123 8.0 9.7 0.00 0.00 0.00 79 1009.2
20260506021448 27 157 4.8 11.3 0.00 0.00 0.00 79 1009.0
20260506020945 26 142 3.2 8.0 0.00 0.00 0.00 79 1009.0
20260506020443 26 168 3.2 16.1 0.00 0.00 0.00 79 1009.1
20260506015940 27 114 6.4 11.3 0.00 0.00 0.00 78 1008.9
20260506015437 27 114 8.0 9.7 0.00 0.00 0.00 78 1008.8
20260506014934 27 147 6.4 11.3 0.00 0.00 0.00 77 1008.7
20260506014431 27 144 8.0 12.9 0.00 0.00 0.00 77 1008.5
20260506013927 27 119 12.9 14.5 0.00 0.00 0.00 77 1008.5
20260506013426 27 113 12.9 12.9 0.00 0.00 0.00 76 1008.7
20260506012921 27 135 6.4 9.7 0.00 0.00 0.00 76 1008.5
20260506012418 27 140 8.0 9.7 0.00 0.00 0.00 75 1008.6
20260506011915 27 123 4.8 11.3 0.00 0.00 0.00 75 1008.7
20260506011412 27 135 8.0 16.1 0.00 0.00 0.00 75 1008.7
20260506010909 27 143 14.5 16.1 0.00 0.00 0.00 75 1008.6
20260506010408 27 135 8.0 14.5 0.00 0.00 0.00 74 1008.6
20260506005904 28 149 4.8 8.0 0.00 0.00 0.00 74 1008.5
20260506005402 28 137 6.4 9.7 0.00 0.00 0.00 74 1008.4
20260506004856 28 100 4.8 11.3 0.00 0.00 0.00 74 1008.5
20260506004355 28 125 4.8 8.0 0.00 0.00 0.00 72 1008.7
20260506003851 28 135 9.7 12.9 0.00 0.00 0.00 71 1008.5
20260506003347 28 137 6.4 11.3 0.00 0.00 0.00 71 1008.7
20260506002844 28 128 4.8 8.0 0.00 0.00 0.00 71 1008.8
20260506002340 28 130 6.4 11.3 0.00 0.00 0.00 71 1008.7
20260506001835 28 141 12.9 12.9 0.00 0.00 0.00 71 1008.8
20260506001333 28 149 6.4 9.7 0.00 0.00 0.00 71 1008.6
20260506000830 28 110 4.8 9.7 0.00 0.00 0.00 72 1008.6
20260506000329 28 129 4.8 12.9 0.00 0.00 0.00 72 1008.6
20260505235824 28 153 9.7 12.9 0.00 0.00 0.00 71 1008.7
20260505235322 28 140 8.0 12.9 0.00 0.00 0.00 71 1008.6
20260505234818 28 159 11.3 11.3 0.00 0.00 0.00 71 1008.5
20260505234317 28 142 11.3 14.5 0.00 0.00 0.00 71 1008.5
20260505233813 28 148 12.9 17.7 0.00 0.00 0.00 71 1008.4
20260505233311 28 131 9.7 14.5 0.00 0.00 0.00 70 1008.2
20260505232808 28 190 8.0 20.9 0.00 0.00 0.00 71 1008.1
20260505232306 28 142 19.3 19.3 0.00 0.00 0.00 70 1008.3
20260505231802 28 146 9.7 17.7 0.00 0.00 0.00 71 1008.2
20260505231300 28 158 9.7 14.5 0.00 0.00 0.00 70 1008.2
20260505230758 28 135 12.9 17.7 0.00 0.00 0.00 70 1008.3
20260505230254 28 206 11.3 19.3 0.00 0.00 0.00 70 1008.4
20260505225751 28 155 9.7 11.3 0.00 0.00 0.00 70 1008.3
20260505225249 28 206 4.8 9.7 0.00 0.00 0.00 70 1008.2
20260505224743 28 141 6.4 9.7 0.00 0.00 0.00 70 1008.2
20260505224242 28 152 12.9 14.5 0.00 0.00 0.00 69 1007.9
20260505223739 28 143 3.2 19.3 0.00 0.00 0.00 70 1008.3
20260505223235 28 154 8.0 16.1 0.00 0.00 0.00 70 1008.0
20260505222731 28 153 11.3 19.3 0.00 0.00 0.00 70 1008.0
20260505222227 28 134 16.1 20.9 0.00 0.00 0.00 70 1008.1
20260505221725 28 143 14.5 19.3 0.00 0.00 0.00 69 1007.9
20260505221221 28 136 27.4 27.4 0.00 0.00 0.00 69 1008.1
20260505220718 28 150 12.9 16.1 0.00 0.00 0.00 70 1008.1
20260505220216 28 97 9.7 14.5 0.00 0.00 0.00 70 1008.3
20260505215714 28 138 17.7 17.7 0.00 0.00 0.00 69 1008.1
20260505215211 28 139 12.9 14.5 0.00 0.00 0.00 69 1008.1
20260505214709 29 138 9.7 20.9 0.00 0.00 0.00 67 1008.2
20260505214206 30 156 12.9 14.5 0.00 0.00 0.00 66 1008.5
20260505213703 30 223 6.4 12.9 0.00 0.00 0.00 65 1008.5
20260505213201 30 211 12.9 14.5 0.00 0.00 0.00 65 1008.3
20260505212656 29 205 11.3 17.7 0.00 0.00 0.00 67 1008.7
20260505212154 29 137 12.9 19.3 0.00 0.00 0.00 66 1008.6
20260505211650 29 149 12.9 24.1 0.00 0.00 0.00 66 1008.6
20260505211148 30 205 9.7 12.9 0.00 0.00 0.00 66 1008.7
20260505210644 29 209 9.7 12.9 0.00 0.00 0.00 66 1008.5
20260505210141 29 171 6.4 16.1 0.00 0.00 0.00 67 1008.7
20260505205638 30 175 8.0 12.9 0.00 0.00 0.00 66 1008.6
20260505205137 29 164 0.0 12.9 0.00 0.00 0.00 68 1008.9
20260505204633 28 147 19.3 27.4 0.00 0.00 0.00 68 1008.8
20260505204131 28 173 8.0 22.5 0.00 0.00 0.00 68 1008.9
20260505203622 28 125 14.5 24.1 0.00 0.00 0.00 68 1008.9
20260505203119 28 150 14.5 19.3 0.00 0.00 0.00 68 1008.8
20260505202615 29 180 3.2 11.3 0.00 0.00 0.00 67 1009.1
20260505202111 29 203 6.4 17.7 0.00 0.00 0.00 67 1009.2
20260505201608 28 164 3.2 16.1 0.00 0.00 0.00 67 1009.3
20260505201106 29 221 3.2 17.7 0.00 0.00 0.00 66 1009.4
20260505200603 30 206 8.0 14.5 0.00 0.00 0.00 67 1009.5
20260505200100 28 180 1.6 16.1 0.00 0.00 0.00 68 1009.4
20260505195556 29 208 9.7 14.5 0.00 0.00 0.00 68 1009.7
20260505195054 28 164 6.4 16.1 0.00 0.00 0.00 69 1009.6
20260505194550 28 149 14.5 14.5 0.00 0.00 0.00 68 1009.6
20260505194046 28 190 6.4 16.1 0.00 0.00 0.00 68 1009.6
20260505193543 28 189 6.4 14.5 0.00 0.00 0.00 69 1009.9
20260505193040 28 182 4.8 12.9 0.00 0.00 0.00 69 1010.0
20260505192539 28 195 0.0 9.7 0.00 0.00 0.00 70 1010.0
20260505192036 28 201 3.2 11.3 0.00 0.00 0.00 70 1010.0
20260505191534 28 205 8.0 11.3 0.00 0.00 0.00 70 1010.1
20260505191032 28 204 8.0 9.7 0.00 0.00 0.00 70 1010.1
20260505190526 27 202 8.0 11.3 0.00 0.00 0.00 72 1010.1
20260505190023 27 180 3.2 12.9 0.00 0.00 0.00 70 1010.0
20260505185520 27 206 6.4 16.1 0.00 0.00 0.00 70 1010.2
20260505185016 27 201 8.0 11.3 0.00 0.00 0.00 72 1010.3
20260505184513 27 210 6.4 14.5 0.00 0.00 0.00 72 1010.5
20260505184009 27 158 4.8 12.9 0.00 0.00 0.00 73 1010.4
20260505183507 27 172 3.2 16.1 0.00 0.00 0.00 73 1010.6
20260505183004 26 203 4.8 11.3 0.00 0.00 0.00 74 1010.6
20260505182500 27 152 4.8 14.5 0.00 0.00 0.00 73 1010.9
20260505181956 26 217 8.0 17.7 0.00 0.00 0.00 74 1010.8
20260505181454 26 200 8.0 16.1 0.00 0.00 0.00 74 1010.9
20260505180950 26 177 3.2 11.3 0.00 0.00 0.00 76 1011.0
20260505180446 26 189 11.3 16.1 0.00 0.00 0.00 77 1011.0
20260505175943 26 148 16.1 16.1 0.00 0.00 0.00 77 1011.0
20260505175439 25 141 12.9 16.1 0.00 0.00 0.00 77 1011.1
20260505174936 25 172 0.0 12.9 0.00 0.00 0.00 78 1011.3
20260505174434 25 221 11.3 11.3 0.00 0.00 0.00 78 1011.4
20260505173930 25 205 8.0 12.9 0.00 0.00 0.00 79 1011.4
20260505173426 25 217 9.7 12.9 0.00 0.00 0.00 79 1011.3
20260505172923 25 148 9.7 16.1 0.00 0.00 0.00 79 1011.4
20260505172422 25 238 6.4 14.5 0.00 0.00 0.00 80 1011.6
20260505171921 25 204 8.0 14.5 0.00 0.00 0.00 80 1011.6
20260505171418 25 207 16.1 16.1 0.00 0.00 0.00 81 1011.6
20260505170914 25 207 6.4 16.1 0.00 0.00 0.00 81 1011.3
20260505170411 25 188 4.8 11.3 0.00 0.00 0.00 82 1011.6
20260505165906 24 202 6.4 16.1 0.00 0.00 0.00 83 1011.7
20260505165403 24 180 1.6 11.3 0.00 0.00 0.00 83 1011.7
20260505164858 23 207 9.7 14.5 0.00 0.00 0.00 83 1011.5
20260505164355 23 178 4.8 12.9 0.00 0.00 0.00 83 1011.5
20260505163853 23 194 4.8 11.3 0.00 0.00 0.00 83 1011.4
20260505163352 23 213 4.8 14.5 0.00 0.00 0.00 84 1011.7
20260505162850 23 213 6.4 11.3 0.00 0.00 0.00 84 1011.7
20260505162346 23 159 9.7 12.9 0.00 0.00 0.00 84 1011.7
20260505161843 23 199 3.2 11.3 0.00 0.00 0.00 85 1011.5
20260505161340 23 201 9.7 9.7 0.00 0.00 0.00 85 1011.6
20260505160837 23 200 9.7 14.5 0.00 0.00 0.00 86 1011.5
20260505160335 22 180 6.4 12.9 0.00 0.00 0.00 86 1011.7
20260505153314 22 202 9.7 11.3 0.00 0.00 0.00 87 1011.8
20260505152811 22 210 0.0 12.9 0.00 0.00 0.00 87 1011.8
20260505152308 22 198 4.8 14.5 0.00 0.00 0.00 87 1011.7
20260505151802 22 192 6.4 11.3 0.00 0.00 0.00 87 1011.7
20260505151259 22 203 4.8 9.7 0.00 0.00 0.00 87 1011.5
20260505150756 22 213 8.0 12.9 0.00 0.00 0.00 87 1011.5
20260505150253 22 188 9.7 12.9 0.00 0.00 0.00 87 1011.4
20260505140223 22 196 3.2 9.7 0.00 0.00 0.00 88 1011.6